Regional Weather Roundup
Issued by NWS

Home | Current Version | Previous Version | Graphics & Text | Print | Product List | Glossary On
Versions: 1 2 3 4 5 6 7 8 9 10 11 12 13 14 15 16 17 18 19 20 21 22 23 24 25 26 27 28 29 30 31 32 33 34 35 36 37 38 39 40 41 42 43 44 45 46 47 48 49 50
215
ASUS43 KBIS 060010
RWRND

NORTH DAKOTA REGIONAL WEATHER ROUNDUP
NATIONAL WEATHER SERVICE BISMARCK ND
600 PM CST MON DEC 05 2016

NOTE: "FAIR" INDICATES FEW OR NO CLOUDS BELOW 12,000 FEET WITH NO
SIGNIFICANT WEATHER AND/OR OBSTRUCTIONS TO VISIBILITY.


NDZ001>003-009>011-017-060100-
NORTHWEST NORTH DAKOTA

CITY           SKY/WX    TMP DP  RH WIND       PRES   REMARKS
WILLISTON      SNOW      12   7  80 NW32G46   29.83R VSB 1/2 WCI -10
6HR MIN TEMP:  12; 6HR MAX TEMP:  22; 6HR PCP: TRACE;

MINOT          CLOUDY    22  20  92 W21       29.63R FOG     WCI   6
MINOT AFB      LGT SNOW  21  19  91 NW22      29.62R VSB 1   WCI   5
$$

NDZ018>021-031>035-040>046-060100-
SOUTHWEST NORTH DAKOTA

CITY           SKY/WX    TMP DP  RH WIND       PRES   REMARKS
BISMARCK       CLOUDY    19  16  88 NW28G38   29.68R BLWGSNOWWCI   1
6HR MIN TEMP:  19; 6HR MAX TEMP:  32; 6HR PCP:  2.46;

DICKINSON      LGT SNOW   9   5  84 NW32G41   29.76R VSB 3/4 WCI -14
GARRISON         N/A     17  13  84 NW32G40   29.66R WCI  -3
6HR MIN TEMP:  17; 6HR MAX TEMP:  26;

HETTINGER ARPT LGT SNOW  10   5  80 NW29G43   29.79R WCI -12
$$

NDZ004>008-012>016-024-026-027-054-060100-
NORTHEAST NORTH DAKOTA

CITY           SKY/WX    TMP DP  RH WIND       PRES   REMARKS
GRAND FORKS    CLOUDY    31  27  85 NE14      29.58F
GRND FRKS AFB  CLOUDY    30  27  91 NE14      29.57F WCI  19
DEVILS LAKE    LGT SNOW  26  25  96 N13       29.58F FOG     WCI  15
$$

NDZ022-023-025-028>030-036>039-047>053-060100-
SOUTHEAST NORTH DAKOTA

CITY           SKY/WX    TMP DP  RH WIND       PRES   REMARKS
FARGO          CLOUDY    34  30  85 E7        29.50F
6HR MIN TEMP:  33; 6HR MAX TEMP:  36; 6HR PCP: TRACE;

JAMESTOWN      SNOW      27  25  92 NW14      29.53F VSB 1/2 WCI  16
$$





USA.gov is the U.S. government's official web portal to all federal, state and local government web resources and services.